Weather History for Connaught Airport, Ireland

Change the Weather History Date:

Friday, October 19, 2012

  Actual Average Record
Temperature  
Mean Temperature 48 °F -  
Max Temperature 51 °F - - ()
Min Temperature 44 °F - - ()
Degree Days  
Heating Degree Days 18    
Moisture  
Dew Point 44 °F    
Average Humidity 85    
Maximum Humidity 100    
Minimum Humidity 70    
Precipitation  
Precipitation 0.00 in - - ()
Sea Level Pressure  
Sea Level Pressure 29.75 in    
Wind  
Wind Speed 7 mph ()    
Max Wind Speed 11 mph    
Max Gust Speed -    
Visibility 7.8 miles    
Events      
T = Trace of Precipitation, MM = Missing Value Source: Averaged Metar Reports

Daily Weather History Graph

Daily Weather History Graph

Search for Another Location

Airport:

Trip Planner

Search our weather history database for the weather conditions in past years. The results will help you decide how hot, cold, wet, or windy it might be!

Date:

Astronomy

Oct. 19, 2012 Rise Set
Actual Time 8:11 AM IST 6:28 PM IST
Civil Twilight 7:35 AM IST 7:04 PM IST
Nautical Twilight 6:54 AM IST 7:45 PM IST
Astronomical Twilight 6:13 AM IST 8:25 PM IST
Moon 1:14 PM IST (10/19) 9:19 PM IST (10/19)
Length of Visible Light 11h 29m
Length of Day
10h 17m
Waxing Crescent, 21% of the Moon is Illuminated
Oct 19
Waxing Crescent
Oct 22
First Quarter
Oct 29
Full
Nov 7
Last Quarter
Nov 13
New

Hourly Weather History & Observations

Time (IST) Temp. Windchill Dew Point Humidity Pressure Visibility Wind Dir Wind Speed Gust Speed Precip Events Conditions
1:00 AM 47 °F - 47 °F 100% 29.67 in - North 11.2 mph - -  
7:00 AM 45 °F - 44 °F 96% 29.75 in 19 mi North 6.7 mph - -   Partly Cloudy
7:00 AM 44.6 °F 40.7 °F 44.6 °F 100% 29.71 in 6.2 mi North 6.9 mph - N/A   Mostly Cloudy
7:30 AM 44.6 °F 41.4 °F 44.6 °F 100% 29.74 in 6.2 mi North 5.8 mph - N/A   Mostly Cloudy
8:00 AM 46.4 °F 41.9 °F 42.8 °F 87% 29.74 in 6.2 mi North 9.2 mph - N/A   Mostly Cloudy
8:30 AM 44.6 °F 40.2 °F 44.6 °F 100% 29.74 in 6.2 mi North 8.1 mph - N/A   Mostly Cloudy
9:00 AM 44.6 °F 40.2 °F 44.6 °F 100% 29.74 in 6.2 mi NNW 8.1 mph - N/A   Scattered Clouds
9:30 AM 44.6 °F 40.2 °F 42.8 °F 93% 29.74 in - North 8.1 mph - N/A   Clear
10:00 AM 46.4 °F 41.9 °F 44.6 °F 93% 29.74 in - North 9.2 mph - N/A   Clear
10:30 AM 46.4 °F 41.9 °F 44.6 °F 93% 29.77 in 6.2 mi North 9.2 mph - N/A   Partly Cloudy
11:00 AM 48.2 °F - 44.6 °F 87% 29.77 in 6.2 mi North 9.2 mph - N/A   Partly Cloudy
11:30 AM 50.0 °F - 42.8 °F 76% 29.77 in 6.2 mi NNE 10.4 mph - N/A   Partly Cloudy
12:00 PM 50.0 °F - 44.6 °F 82% 29.77 in 6.2 mi NNE 9.2 mph - N/A   Scattered Clouds
12:30 PM 51.8 °F - 46.4 °F 82% 29.77 in 6.2 mi NE 9.2 mph - N/A   Scattered Clouds
1:00 PM 51 °F - 44 °F 70% 29.79 in 19 mi NNE 8.9 mph - -   Partly Cloudy
1:00 PM 50.0 °F - 44.6 °F 82% 29.77 in 6.2 mi NNE 9.2 mph - N/A   Scattered Clouds
1:30 PM 51.8 °F - 42.8 °F 71% 29.77 in 6.2 mi NNE 9.2 mph - N/A   Scattered Clouds
2:00 PM 50.0 °F - 42.8 °F 76% 29.77 in 6.2 mi NNE 6.9 mph - N/A   Scattered Clouds
2:30 PM 50.0 °F - 42.8 °F 76% 29.74 in 6.2 mi North 6.9 mph - N/A   Scattered Clouds
3:00 PM 50.0 °F - 42.8 °F 76% 29.74 in 6.2 mi North 6.9 mph - N/A   Mostly Cloudy
3:30 PM 50.0 °F - 42.8 °F 76% 29.74 in 6.2 mi North 6.9 mph - N/A   Mostly Cloudy
4:00 PM 50.0 °F - 42.8 °F 76% 29.74 in 6.2 mi North 6.9 mph - N/A   Mostly Cloudy
4:30 PM 50.0 °F - 42.8 °F 76% 29.74 in 6.2 mi North 6.9 mph - N/A   Mostly Cloudy
5:00 PM 50.0 °F - 42.8 °F 76% 29.74 in 6.2 mi NNE 4.6 mph - N/A   Mostly Cloudy
5:30 PM 50.0 °F - 42.8 °F 76% 29.74 in 6.2 mi NNE 2.3 mph - N/A   Mostly Cloudy
6:00 PM 48.2 °F - 44.6 °F 87% 29.77 in 6.2 mi NW 2.3 mph - N/A   Mostly Cloudy
7:00 PM 47 °F - 44 °F 87% 29.79 in 19 mi NW 4.5 mph - -   Mostly Cloudy